AAY3189 KATW-KPGD

Flight info

Callsign AAY3189
Flight time 2h 47m
Altitude 37000
Route BAE J89 IIU Q79 THRSR HONID Q81 NICKI PLYER PIKKR7
Aircraft A320/M-SDFGHIRWYZ/SB1

Departure

Time 2026-04-24 00:44
Airport Appleton International Airport (KATW)

Arrival

Time 2026-04-24 03:31
Airport Punta Gorda Airport (KPGD)
Time Latitude Longitude Altitude Speed Heading
2026-04-24 00:03 44.25984 -88.51463 909 ft 0 kts
2026-04-24 00:35 44.25977 -88.51463 908 ft 4 kts
2026-04-24 00:35 44.25950 -88.51463 909 ft 4 kts
2026-04-24 00:35 44.25929 -88.51463 912 ft 4 kts 357°
2026-04-24 00:36 44.25904 -88.51453 911 ft 4 kts 316°
2026-04-24 00:36 44.25887 -88.51432 910 ft 2 kts 336°
2026-04-24 00:36 44.25866 -88.51417 911 ft 2 kts 335°
2026-04-24 00:36 44.25864 -88.51416 911 ft 0 kts 335°
2026-04-24 00:39 44.25865 -88.51416 911 ft 0 kts 335°
2026-04-24 00:39 44.25875 -88.51423 911 ft 3 kts 335°
2026-04-24 00:39 44.25895 -88.51470 914 ft 11 kts 269°
2026-04-24 00:40 44.25873 -88.51585 910 ft 12 kts 254°
2026-04-24 00:40 44.25852 -88.51684 910 ft 10 kts 253°
2026-04-24 00:40 44.25835 -88.51767 913 ft 8 kts 255°
2026-04-24 00:40 44.25842 -88.51837 913 ft 7 kts 290°
2026-04-24 00:41 44.25872 -88.51931 914 ft 15 kts 295°
2026-04-24 00:41 44.25918 -88.52060 910 ft 14 kts 296°
2026-04-24 00:41 44.25957 -88.52171 912 ft 11 kts 296°
2026-04-24 00:41 44.25996 -88.52280 918 ft 12 kts 297°
2026-04-24 00:42 44.26035 -88.52392 916 ft 14 kts 296°
2026-04-24 00:42 44.26081 -88.52523 916 ft 16 kts 296°
2026-04-24 00:42 44.26135 -88.52675 920 ft 20 kts 296°
2026-04-24 00:42 44.26187 -88.52822 919 ft 11 kts 295°
2026-04-24 00:43 44.26188 -88.52907 920 ft 8 kts 229°
2026-04-24 00:43 44.26135 -88.52946 919 ft 9 kts 205°
2026-04-24 00:43 44.26095 -88.52909 924 ft 8 kts 115°
2026-04-24 00:43 44.26063 -88.52822 919 ft 19 kts 117°
2026-04-24 00:44 44.25889 -88.52324 915 ft 93 kts 116°
2026-04-24 00:44 44.25513 -88.51256 936 ft 146 kts 117°
2026-04-24 00:44 44.25065 -88.49978 1537 ft 143 kts 118°
2026-04-24 00:44 44.24638 -88.48787 2226 ft 139 kts 118°
2026-04-24 00:45 44.24187 -88.47579 2740 ft 145 kts 120°
2026-04-24 00:45 44.23684 -88.46275 3067 ft 158 kts 125°
2026-04-24 00:45 44.23079 -88.44950 3394 ft 169 kts 139°
2026-04-24 00:45 44.22000 -88.44183 3553 ft 188 kts 173°
2026-04-24 00:46 44.20640 -88.44021 3953 ft 207 kts 176°
2026-04-24 00:46 44.19125 -88.43834 4322 ft 230 kts 175°
2026-04-24 00:46 44.17468 -88.43602 4879 ft 246 kts 175°
2026-04-24 00:46 44.15754 -88.43351 5731 ft 249 kts 175°
2026-04-24 00:47 44.14018 -88.43097 6586 ft 252 kts 176°
2026-04-24 00:47 44.12258 -88.42841 7401 ft 256 kts 176°
2026-04-24 00:47 44.10470 -88.42581 8183 ft 261 kts 176°
2026-04-24 00:47 44.08646 -88.42317 8945 ft 265 kts 176°
2026-04-24 00:48 44.06796 -88.42050 9712 ft 269 kts 176°
2026-04-24 00:48 44.04910 -88.41774 10300 ft 280 kts 176°
2026-04-24 00:48 44.02899 -88.41483 10528 ft 302 kts 176°
2026-04-24 00:48 44.00731 -88.41172 10851 ft 321 kts 176°
2026-04-24 00:49 43.98514 -88.40854 11459 ft 327 kts 176°
2026-04-24 00:49 43.96193 -88.40517 12100 ft 334 kts 176°
2026-04-24 00:49 43.93890 -88.40179 12743 ft 340 kts 176°
2026-04-24 00:49 43.91493 -88.39827 13409 ft 344 kts 176°
2026-04-24 00:50 43.89096 -88.39476 14042 ft 349 kts 176°
2026-04-24 00:50 43.86668 -88.39122 14674 ft 353 kts 176°
2026-04-24 00:50 43.84243 -88.38770 15297 ft 357 kts 176°
2026-04-24 00:50 43.81760 -88.38413 15902 ft 361 kts 176°
2026-04-24 00:51 43.79250 -88.38052 16496 ft 365 kts 176°
2026-04-24 00:51 43.76713 -88.37692 17079 ft 368 kts 176°
2026-04-24 00:51 43.74150 -88.37329 17634 ft 372 kts 176°
2026-04-24 00:51 43.71564 -88.36959 18179 ft 376 kts 176°
2026-04-24 00:52 43.68947 -88.36581 18728 ft 379 kts 176°
2026-04-24 00:52 43.66309 -88.36199 19266 ft 383 kts 176°
2026-04-24 00:52 43.63646 -88.35815 19800 ft 387 kts 176°
2026-04-24 00:52 43.60958 -88.35428 20328 ft 390 kts 176°
2026-04-24 00:53 43.58250 -88.35042 20842 ft 394 kts 176°
2026-04-24 00:53 43.55511 -88.34653 21354 ft 397 kts 176°
2026-04-24 00:53 43.52756 -88.34260 21845 ft 400 kts 176°
2026-04-24 00:53 43.49975 -88.33866 22330 ft 403 kts 176°
2026-04-24 00:54 43.47174 -88.33466 22786 ft 406 kts 176°
2026-04-24 00:54 43.44353 -88.33061 23225 ft 409 kts 176°
2026-04-24 00:54 43.41505 -88.32655 23661 ft 412 kts 176°
2026-04-24 00:54 43.38644 -88.32251 24088 ft 415 kts 176°
2026-04-24 00:55 43.35759 -88.31843 24478 ft 418 kts 176°
2026-04-24 00:55 43.32854 -88.31435 24865 ft 421 kts 176°
2026-04-24 00:55 43.29927 -88.31022 25228 ft 424 kts 176°
2026-04-24 00:55 43.26987 -88.30602 25580 ft 427 kts 176°
2026-04-24 00:56 43.24022 -88.30177 25924 ft 430 kts 176°
2026-04-24 00:56 43.21039 -88.29751 26267 ft 432 kts 176°
2026-04-24 00:56 43.18039 -88.29330 26602 ft 435 kts 176°
2026-04-24 00:56 43.15012 -88.28911 26926 ft 438 kts 176°
2026-04-24 00:57 43.11981 -88.28433 27247 ft 441 kts 172°
2026-04-24 00:57 43.08983 -88.27444 27555 ft 446 kts 167°
2026-04-24 00:57 43.02976 -88.25171 28151 ft 451 kts 167°
2026-04-24 00:58 42.99947 -88.24028 28445 ft 453 kts 167°
2026-04-24 00:58 42.96895 -88.22877 28732 ft 455 kts 167°
2026-04-24 00:58 42.93833 -88.21729 29010 ft 457 kts 167°
2026-04-24 00:58 42.90756 -88.20578 29277 ft 460 kts 167°
2026-04-24 00:59 42.87667 -88.19422 29523 ft 462 kts 167°
2026-04-24 00:59 42.84599 -88.18274 29772 ft 464 kts 167°
2026-04-24 00:59 42.81480 -88.17109 30024 ft 466 kts 167°
2026-04-24 00:59 42.78302 -88.15924 30259 ft 468 kts 167°
2026-04-24 01:00 42.75198 -88.14766 30497 ft 470 kts 167°
2026-04-24 01:00 42.72044 -88.13591 30727 ft 471 kts 167°
2026-04-24 01:00 42.68878 -88.12413 30939 ft 472 kts 167°
2026-04-24 01:00 42.65718 -88.11236 31259 ft 471 kts 167°
2026-04-24 01:01 42.62517 -88.10043 31572 ft 470 kts 167°
2026-04-24 01:01 42.59410 -88.08887 31883 ft 469 kts 167°
2026-04-24 01:01 42.56270 -88.07722 32171 ft 468 kts 167°
2026-04-24 01:01 42.53131 -88.06562 32464 ft 467 kts 167°
2026-04-24 01:02 42.49994 -88.05406 32752 ft 466 kts 167°
2026-04-24 01:02 42.46864 -88.04254 33026 ft 466 kts 167°
2026-04-24 01:02 42.43741 -88.03101 33306 ft 465 kts 167°
2026-04-24 01:02 42.40620 -88.01949 33584 ft 465 kts 167°
2026-04-24 01:03 42.37502 -88.00804 33862 ft 464 kts 167°
2026-04-24 01:03 42.34388 -87.99665 34137 ft 463 kts 167°
2026-04-24 01:03 42.31284 -87.98533 34394 ft 463 kts 167°
2026-04-24 01:03 42.28179 -87.97398 34647 ft 462 kts 167°
2026-04-24 01:04 42.25081 -87.96263 34889 ft 461 kts 167°
2026-04-24 01:04 42.21992 -87.95064 35131 ft 462 kts 163°
2026-04-24 01:04 42.18998 -87.93474 35362 ft 463 kts 160°
2026-04-24 01:04 42.16020 -87.91845 35574 ft 462 kts 161°
2026-04-24 01:05 42.13041 -87.90219 35796 ft 461 kts 161°
2026-04-24 01:05 42.10067 -87.88602 36001 ft 461 kts 161°
2026-04-24 01:05 42.07275 -87.87088 36187 ft 460 kts 161°
2026-04-24 01:05 42.04311 -87.85486 36377 ft 460 kts 161°
2026-04-24 01:06 42.01344 -87.83882 36557 ft 459 kts 161°
2026-04-24 01:06 41.98381 -87.82278 36729 ft 459 kts 161°
2026-04-24 01:06 41.95416 -87.80675 36791 ft 458 kts 161°
2026-04-24 01:07 41.89529 -87.77498 36795 ft 454 kts 161°
2026-04-24 01:07 41.83681 -87.74347 36804 ft 451 kts 161°
2026-04-24 01:08 41.77875 -87.71229 36805 ft 448 kts 161°
2026-04-24 01:08 41.72083 -87.68130 36805 ft 448 kts 161°
2026-04-24 01:09 41.66336 -87.65058 36806 ft 448 kts 161°
2026-04-24 01:09 41.60545 -87.61961 36820 ft 448 kts 161°
2026-04-24 01:10 41.54756 -87.58872 36829 ft 448 kts 161°
2026-04-24 01:10 41.48971 -87.55783 36837 ft 447 kts 162°
2026-04-24 01:11 41.43191 -87.52719 36843 ft 447 kts 162°
2026-04-24 01:11 41.37410 -87.49663 36837 ft 447 kts 162°
2026-04-24 01:12 41.31638 -87.46609 36836 ft 446 kts 162°
2026-04-24 01:12 41.25863 -87.43556 36840 ft 446 kts 162°
2026-04-24 01:13 41.20098 -87.40524 36842 ft 446 kts 162°
2026-04-24 01:13 41.14321 -87.37485 36850 ft 446 kts 162°
2026-04-24 01:14 41.08551 -87.34444 36855 ft 446 kts 162°
2026-04-24 01:14 41.02784 -87.31418 36863 ft 446 kts 162°
2026-04-24 01:15 40.97018 -87.28405 36869 ft 446 kts 162°
2026-04-24 01:15 40.91248 -87.25397 36872 ft 446 kts 162°
2026-04-24 01:16 40.85481 -87.22391 36876 ft 446 kts 162°
2026-04-24 01:16 40.79720 -87.19395 36874 ft 445 kts 162°
2026-04-24 01:17 40.73954 -87.16398 36881 ft 445 kts 162°
2026-04-24 01:17 40.68195 -87.13419 36881 ft 444 kts 162°
2026-04-24 01:18 40.62432 -87.10449 36880 ft 444 kts 163°
2026-04-24 01:18 40.56673 -87.07493 36878 ft 444 kts 163°
2026-04-24 01:19 40.50985 -87.04260 36883 ft 447 kts 158°
2026-04-24 01:19 40.45412 -87.00628 36885 ft 447 kts 157°
2026-04-24 01:20 40.39854 -86.96971 36887 ft 447 kts 158°
2026-04-24 01:20 40.34260 -86.93419 36889 ft 447 kts 159°
2026-04-24 01:21 40.28647 -86.89925 36895 ft 446 kts 159°
2026-04-24 01:21 40.23037 -86.86439 36898 ft 447 kts 159°
2026-04-24 01:22 40.17422 -86.82944 36906 ft 446 kts 159°
2026-04-24 01:22 40.11858 -86.79469 36903 ft 446 kts 159°
2026-04-24 01:23 40.06252 -86.75968 36903 ft 446 kts 159°
2026-04-24 01:23 40.00654 -86.72474 36910 ft 446 kts 159°
2026-04-24 01:24 39.95963 -86.69550 36918 ft 446 kts 159°
2026-04-24 01:24 39.90364 -86.66078 36907 ft 445 kts 159°
2026-04-24 01:25 39.84772 -86.62632 36910 ft 445 kts 159°
2026-04-24 01:25 39.79182 -86.59183 36920 ft 444 kts 159°
2026-04-24 01:26 39.73596 -86.55730 36923 ft 444 kts 159°
2026-04-24 01:26 39.68047 -86.52310 36925 ft 444 kts 159°
2026-04-24 01:27 39.62453 -86.48889 36919 ft 444 kts 159°
2026-04-24 01:27 39.56865 -86.45467 36930 ft 444 kts 159°
2026-04-24 01:28 39.51276 -86.42043 36933 ft 445 kts 159°
2026-04-24 01:28 39.45682 -86.38627 36933 ft 444 kts 159°
2026-04-24 01:29 39.40089 -86.35216 36934 ft 444 kts 159°
2026-04-24 01:29 39.34496 -86.31804 36935 ft 445 kts 159°
2026-04-24 01:30 39.28896 -86.28406 36943 ft 445 kts 159°
2026-04-24 01:30 39.23293 -86.25010 36947 ft 445 kts 159°
2026-04-24 01:31 39.17686 -86.21615 36952 ft 445 kts 159°
2026-04-24 01:31 39.12083 -86.18228 36958 ft 445 kts 159°
2026-04-24 01:32 39.06484 -86.14849 36962 ft 444 kts 159°
2026-04-24 01:32 39.00880 -86.11479 36960 ft 445 kts 159°
2026-04-24 01:33 38.95279 -86.08113 36959 ft 444 kts 159°
2026-04-24 01:33 38.89686 -86.04751 36959 ft 444 kts 159°
2026-04-24 01:34 38.84087 -86.01394 36959 ft 444 kts 159°
2026-04-24 01:34 38.78490 -85.98048 36954 ft 444 kts 159°
2026-04-24 01:35 38.72885 -85.94693 36943 ft 445 kts 159°
2026-04-24 01:35 38.67309 -85.91361 36947 ft 445 kts 159°
2026-04-24 01:36 38.61685 -85.88030 36951 ft 445 kts 159°
2026-04-24 01:36 38.56061 -85.84689 36952 ft 445 kts 159°
2026-04-24 01:37 38.50444 -85.81357 36950 ft 445 kts 159°
2026-04-24 01:37 38.44821 -85.78037 36949 ft 445 kts 159°
2026-04-24 01:38 38.39203 -85.74714 36947 ft 445 kts 159°
2026-04-24 01:38 38.33584 -85.71394 36949 ft 445 kts 159°
2026-04-24 01:39 38.27965 -85.68086 36953 ft 445 kts 159°
2026-04-24 01:39 38.22342 -85.64783 36961 ft 445 kts 159°
2026-04-24 01:40 38.16714 -85.61475 36969 ft 445 kts 159°
2026-04-24 01:40 38.11070 -85.58248 36969 ft 443 kts 163°
2026-04-24 01:41 38.05163 -85.56306 36968 ft 438 kts 172°
2026-04-24 01:41 37.99195 -85.54706 36968 ft 438 kts 172°
2026-04-24 01:42 37.93223 -85.53119 36972 ft 439 kts 172°
2026-04-24 01:42 37.87284 -85.51543 36974 ft 439 kts 172°
2026-04-24 01:43 37.81303 -85.49925 36978 ft 439 kts 172°
2026-04-24 01:43 37.75329 -85.48303 36973 ft 439 kts 171°
2026-04-24 01:44 37.69356 -85.46701 36972 ft 439 kts 172°
2026-04-24 01:44 37.63381 -85.45124 36973 ft 439 kts 172°
2026-04-24 01:45 37.57408 -85.43529 36979 ft 439 kts 171°
2026-04-24 01:45 37.51427 -85.41927 36989 ft 439 kts 171°
2026-04-24 01:46 37.45440 -85.40334 36999 ft 440 kts 171°
2026-04-24 01:46 37.39453 -85.38740 37012 ft 440 kts 171°
2026-04-24 01:47 37.33461 -85.37149 37023 ft 440 kts 171°
2026-04-24 01:47 37.27472 -85.35568 37032 ft 440 kts 171°
2026-04-24 01:48 37.21470 -85.33989 37034 ft 441 kts 171°
2026-04-24 01:48 37.15467 -85.32395 37042 ft 441 kts 171°
2026-04-24 01:49 37.09455 -85.30800 37038 ft 442 kts 171°
2026-04-24 01:49 37.03438 -85.29216 37034 ft 442 kts 171°
2026-04-24 01:50 36.97415 -85.27633 37036 ft 443 kts 171°
2026-04-24 01:50 36.91383 -85.26059 37036 ft 443 kts 171°
2026-04-24 01:51 36.85356 -85.24480 37041 ft 443 kts 171°
2026-04-24 01:51 36.79329 -85.22903 37039 ft 442 kts 171°
2026-04-24 01:52 36.73310 -85.21324 37031 ft 442 kts 171°
2026-04-24 01:52 36.67287 -85.19750 37038 ft 442 kts 171°
2026-04-24 01:53 36.61266 -85.18187 37033 ft 441 kts 171°
2026-04-24 01:53 36.55260 -85.16630 37029 ft 441 kts 171°
2026-04-24 01:54 36.49253 -85.15073 37030 ft 441 kts 171°
2026-04-24 01:54 36.43240 -85.13523 37032 ft 442 kts 171°
2026-04-24 01:55 36.37215 -85.11970 37037 ft 442 kts 171°
2026-04-24 01:55 36.31194 -85.10409 37046 ft 442 kts 171°
2026-04-24 01:56 36.25169 -85.08849 37043 ft 442 kts 171°
2026-04-24 01:56 36.19144 -85.07298 37048 ft 442 kts 171°
2026-04-24 01:57 36.13122 -85.05754 37052 ft 442 kts 171°
2026-04-24 01:57 36.07101 -85.04217 37058 ft 442 kts 171°
2026-04-24 01:58 36.01072 -85.02675 37062 ft 442 kts 171°
2026-04-24 01:58 35.95052 -85.01133 37065 ft 442 kts 170°
2026-04-24 01:59 35.89024 -84.99593 37068 ft 442 kts 170°
2026-04-24 01:59 35.83034 -84.98065 37067 ft 442 kts 170°
2026-04-24 02:00 35.77002 -84.96521 37068 ft 443 kts 170°
2026-04-24 02:00 35.70969 -84.94993 37062 ft 443 kts 170°
2026-04-24 02:01 35.64933 -84.93466 37058 ft 443 kts 170°
2026-04-24 02:01 35.58899 -84.91938 37050 ft 443 kts 170°
2026-04-24 02:02 35.52858 -84.90406 37043 ft 443 kts 170°
2026-04-24 02:02 35.46821 -84.88879 37029 ft 443 kts 170°
2026-04-24 02:03 35.37767 -84.86587 37019 ft 443 kts 170°
2026-04-24 02:03 35.31725 -84.85056 37019 ft 443 kts 170°
2026-04-24 02:04 35.25678 -84.83534 37021 ft 444 kts 170°
2026-04-24 02:04 35.19632 -84.82015 37015 ft 444 kts 170°
2026-04-24 02:05 35.13579 -84.80502 37019 ft 444 kts 170°
2026-04-24 02:05 35.07523 -84.78994 37026 ft 445 kts 170°
2026-04-24 02:06 35.01454 -84.77481 37036 ft 445 kts 170°
2026-04-24 02:06 34.96411 -84.76214 37046 ft 445 kts 170°
2026-04-24 02:07 34.90345 -84.74690 37053 ft 445 kts 170°
2026-04-24 02:07 34.84279 -84.73180 37056 ft 445 kts 170°
2026-04-24 02:08 34.78168 -84.71665 37059 ft 445 kts 170°
2026-04-24 02:08 34.72145 -84.70171 37060 ft 445 kts 170°
2026-04-24 02:09 34.66080 -84.68665 37061 ft 445 kts 170°
2026-04-24 02:09 34.60019 -84.67162 37063 ft 445 kts 169°
2026-04-24 02:10 34.53918 -84.65628 37066 ft 445 kts 169°
2026-04-24 02:10 34.47867 -84.64040 37066 ft 445 kts 169°
2026-04-24 02:11 34.41817 -84.62433 37065 ft 445 kts 169°
2026-04-24 02:11 34.35801 -84.60850 37069 ft 445 kts 169°
2026-04-24 02:12 34.29740 -84.59269 37069 ft 446 kts 169°
2026-04-24 02:12 34.23671 -84.57699 37071 ft 446 kts 169°
2026-04-24 02:13 34.17600 -84.56133 37072 ft 446 kts 169°
2026-04-24 02:13 34.11525 -84.54562 37070 ft 446 kts 169°
2026-04-24 02:14 34.05454 -84.52987 37068 ft 447 kts 169°
2026-04-24 02:14 33.99368 -84.51464 37072 ft 447 kts 170°
2026-04-24 02:15 33.93246 -84.50120 37070 ft 447 kts 171°
2026-04-24 02:15 33.87116 -84.48824 37064 ft 448 kts 171°
2026-04-24 02:16 33.80979 -84.47492 37065 ft 448 kts 170°
2026-04-24 02:16 33.74855 -84.46139 37069 ft 448 kts 170°
2026-04-24 02:17 33.68726 -84.44782 37071 ft 448 kts 170°
2026-04-24 02:17 33.62582 -84.43548 37073 ft 447 kts 176°
2026-04-24 02:18 33.56384 -84.43377 37076 ft 446 kts 180°
2026-04-24 02:18 33.50175 -84.43251 37078 ft 446 kts 180°
2026-04-24 02:19 33.43973 -84.43120 37084 ft 446 kts 180°
2026-04-24 02:19 33.37777 -84.42989 37090 ft 445 kts 180°
2026-04-24 02:20 33.31577 -84.42863 37094 ft 445 kts 180°
2026-04-24 02:20 33.25427 -84.42738 37097 ft 445 kts 180°
2026-04-24 02:21 33.19236 -84.42607 37092 ft 445 kts 180°
2026-04-24 02:21 33.13054 -84.42480 37090 ft 444 kts 180°
2026-04-24 02:22 33.06868 -84.42365 37090 ft 444 kts 180°
2026-04-24 02:22 33.00689 -84.42245 37086 ft 444 kts 180°
2026-04-24 02:23 32.94510 -84.42119 37086 ft 444 kts 180°
2026-04-24 02:23 32.88334 -84.41987 37091 ft 444 kts 180°
2026-04-24 02:24 32.82154 -84.41854 37086 ft 444 kts 180°
2026-04-24 02:24 32.75973 -84.41737 37088 ft 444 kts 180°
2026-04-24 02:25 32.69790 -84.41619 37094 ft 444 kts 180°
2026-04-24 02:25 32.63609 -84.41487 37086 ft 444 kts 180°
2026-04-24 02:26 32.57421 -84.41363 37084 ft 445 kts 180°
2026-04-24 02:26 32.51239 -84.41242 37079 ft 444 kts 180°
2026-04-24 02:27 32.45057 -84.41128 37075 ft 444 kts 180°
2026-04-24 02:27 32.38873 -84.40997 37068 ft 444 kts 179°
2026-04-24 02:28 32.32696 -84.40866 37061 ft 444 kts 180°
2026-04-24 02:28 32.26519 -84.40745 37053 ft 444 kts 180°
2026-04-24 02:29 32.20341 -84.40623 37050 ft 444 kts 180°
2026-04-24 02:29 32.14160 -84.40503 37049 ft 444 kts 179°
2026-04-24 02:30 32.08017 -84.40369 37053 ft 444 kts 179°
2026-04-24 02:30 32.01836 -84.40240 37055 ft 445 kts 179°
2026-04-24 02:31 31.95655 -84.40119 37060 ft 444 kts 179°
2026-04-24 02:31 31.89476 -84.40008 37062 ft 444 kts 180°
2026-04-24 02:32 31.83298 -84.39893 37069 ft 444 kts 179°
2026-04-24 02:32 31.77118 -84.39766 37073 ft 444 kts 179°
2026-04-24 02:33 31.70935 -84.39639 37075 ft 444 kts 179°
2026-04-24 02:33 31.64760 -84.39402 37078 ft 445 kts 173°
2026-04-24 02:34 31.58698 -84.37981 37075 ft 445 kts 168°
2026-04-24 02:34 31.52651 -84.36446 37075 ft 444 kts 168°
2026-04-24 02:35 31.46606 -84.34925 37075 ft 444 kts 168°
2026-04-24 02:35 31.40561 -84.33399 37077 ft 444 kts 168°
2026-04-24 02:36 31.34521 -84.31871 37078 ft 444 kts 168°
2026-04-24 02:36 31.28477 -84.30347 37077 ft 444 kts 168°
2026-04-24 02:37 31.22435 -84.28830 37078 ft 444 kts 168°
2026-04-24 02:37 31.16394 -84.27313 37077 ft 444 kts 168°
2026-04-24 02:38 31.10390 -84.25806 37078 ft 444 kts 168°
2026-04-24 02:38 31.04348 -84.24291 37082 ft 444 kts 168°
2026-04-24 02:39 30.98314 -84.22778 37085 ft 443 kts 168°
2026-04-24 02:39 30.92281 -84.21269 37087 ft 443 kts 168°
2026-04-24 02:40 30.86257 -84.19762 37098 ft 443 kts 168°
2026-04-24 02:40 30.80232 -84.18262 37090 ft 443 kts 168°
2026-04-24 02:41 30.74213 -84.16763 37102 ft 442 kts 168°
2026-04-24 02:41 30.68201 -84.15269 37091 ft 441 kts 168°
2026-04-24 02:42 30.62197 -84.13775 37088 ft 441 kts 168°
2026-04-24 02:42 30.56200 -84.12280 37093 ft 441 kts 168°
2026-04-24 02:43 30.50206 -84.10791 37098 ft 440 kts 169°
2026-04-24 02:43 30.44217 -84.09309 37084 ft 440 kts 168°
2026-04-24 02:44 30.38256 -84.07702 37083 ft 440 kts 161°
2026-04-24 02:44 30.32777 -84.04576 37073 ft 440 kts 150°
2026-04-24 02:45 30.27470 -84.01030 37075 ft 440 kts 150°
2026-04-24 02:45 30.22148 -83.97512 37078 ft 441 kts 151°
2026-04-24 02:46 30.16825 -83.94002 37083 ft 441 kts 151°
2026-04-24 02:46 30.11504 -83.90490 37082 ft 440 kts 151°
2026-04-24 02:47 30.06187 -83.86973 37083 ft 440 kts 151°
2026-04-24 02:47 30.00879 -83.83460 37085 ft 440 kts 150°
2026-04-24 02:48 29.95564 -83.79948 37091 ft 440 kts 151°
2026-04-24 02:48 29.90240 -83.76451 37087 ft 440 kts 151°
2026-04-24 02:49 29.84914 -83.72961 37087 ft 441 kts 151°
2026-04-24 02:49 29.79577 -83.69468 37091 ft 441 kts 151°
2026-04-24 02:50 29.75152 -83.66559 37094 ft 441 kts 151°
2026-04-24 02:50 29.69823 -83.63060 37092 ft 441 kts 152°
2026-04-24 02:51 29.64488 -83.59569 37091 ft 441 kts 152°
2026-04-24 02:51 29.59151 -83.56086 37093 ft 441 kts 152°
2026-04-24 02:52 29.53802 -83.52600 37091 ft 442 kts 152°
2026-04-24 02:52 29.48463 -83.49110 37086 ft 442 kts 153°
2026-04-24 02:53 29.43148 -83.45645 37083 ft 442 kts 153°
2026-04-24 02:53 29.37762 -83.42143 37082 ft 442 kts 153°
2026-04-24 02:54 29.32403 -83.38667 37082 ft 443 kts 153°
2026-04-24 02:54 29.26938 -83.35475 37079 ft 439 kts 163°
2026-04-24 02:55 29.21068 -83.34129 37082 ft 431 kts 181°
2026-04-24 02:55 29.15091 -83.34016 37080 ft 430 kts 182°
2026-04-24 02:56 29.09107 -83.33891 37083 ft 430 kts 183°
2026-04-24 02:56 29.03129 -83.33752 37099 ft 430 kts 183°
2026-04-24 02:57 28.97149 -83.33636 36850 ft 430 kts 183°
2026-04-24 02:57 28.94145 -83.33586 36008 ft 434 kts 184°
2026-04-24 02:57 28.91123 -83.33615 35149 ft 435 kts 185°
2026-04-24 02:58 28.88093 -83.33725 34345 ft 435 kts 186°
2026-04-24 02:58 28.85093 -83.33873 33829 ft 428 kts 187°
2026-04-24 02:58 28.82133 -83.34027 33248 ft 424 kts 187°
2026-04-24 02:58 28.79191 -83.34170 32665 ft 421 kts 187°
2026-04-24 02:59 28.76270 -83.34298 32078 ft 419 kts 186°
2026-04-24 02:59 28.73374 -83.34410 31513 ft 415 kts 186°
2026-04-24 02:59 28.70495 -83.34516 30952 ft 412 kts 186°
2026-04-24 02:59 28.67641 -83.34619 30400 ft 409 kts 186°
2026-04-24 03:00 28.64802 -83.34722 29847 ft 407 kts 187°
2026-04-24 03:00 28.61985 -83.34825 29316 ft 404 kts 187°
2026-04-24 03:00 28.59187 -83.34928 28789 ft 401 kts 186°
2026-04-24 03:00 28.56407 -83.35034 28285 ft 398 kts 187°
2026-04-24 03:01 28.53646 -83.35142 27768 ft 396 kts 187°
2026-04-24 03:01 28.50902 -83.35252 27282 ft 393 kts 186°
2026-04-24 03:01 28.48181 -83.35359 26803 ft 390 kts 186°
2026-04-24 03:01 28.46388 -83.35428 26488 ft 388 kts 186°
2026-04-24 03:03 28.31847 -83.35987 23909 ft 373 kts 186°
2026-04-24 03:03 28.29257 -83.36086 23419 ft 371 kts 185°
2026-04-24 03:03 28.26682 -83.36189 22956 ft 369 kts 186°
2026-04-24 03:03 28.24110 -83.36336 22772 ft 372 kts 186°
2026-04-24 03:04 28.21521 -83.36515 22531 ft 373 kts 187°
2026-04-24 03:04 28.18934 -83.36702 22291 ft 372 kts 187°
2026-04-24 03:04 28.16364 -83.36890 22052 ft 370 kts 187°
2026-04-24 03:04 28.13792 -83.37069 21812 ft 369 kts 186°
2026-04-24 03:05 28.11226 -83.37137 21572 ft 369 kts 183°
2026-04-24 03:05 28.08662 -83.37099 21330 ft 368 kts 181°
2026-04-24 03:05 28.06144 -83.37010 21097 ft 367 kts 181°
2026-04-24 03:05 28.03600 -83.36906 20856 ft 365 kts 181°
2026-04-24 03:06 28.01067 -83.36811 20614 ft 364 kts 181°
2026-04-24 03:06 27.98506 -83.36731 20379 ft 362 kts 181°
2026-04-24 03:06 27.96024 -83.36665 20143 ft 361 kts 181°
2026-04-24 03:06 27.93515 -83.36607 19905 ft 360 kts 181°
2026-04-24 03:07 27.91020 -83.36555 19670 ft 358 kts 181°
2026-04-24 03:07 27.88536 -83.36507 19430 ft 357 kts 181°
2026-04-24 03:07 27.86060 -83.36459 19198 ft 355 kts 181°
2026-04-24 03:07 27.83599 -83.36410 18968 ft 354 kts 181°
2026-04-24 03:08 27.81135 -83.36356 18736 ft 353 kts 181°
2026-04-24 03:08 27.76243 -83.36252 18277 ft 350 kts 181°
2026-04-24 03:08 27.73809 -83.36198 18057 ft 349 kts 180°
2026-04-24 03:09 27.71386 -83.36143 17832 ft 348 kts 181°
2026-04-24 03:09 27.68973 -83.36091 17607 ft 347 kts 181°
2026-04-24 03:09 27.66566 -83.36039 17381 ft 345 kts 181°
2026-04-24 03:09 27.64163 -83.35988 17163 ft 344 kts 180°
2026-04-24 03:10 27.61775 -83.35938 16932 ft 343 kts 180°
2026-04-24 03:10 27.59393 -83.35889 16711 ft 342 kts 180°
2026-04-24 03:10 27.57024 -83.35839 16485 ft 340 kts 180°
2026-04-24 03:10 27.54661 -83.35785 16172 ft 338 kts 180°
2026-04-24 03:11 27.53108 -83.35748 16034 ft 337 kts 180°
2026-04-24 03:11 27.49974 -83.35675 15738 ft 336 kts 180°
2026-04-24 03:11 27.47639 -83.35574 15513 ft 336 kts 174°
2026-04-24 03:11 27.45387 -83.34917 15299 ft 336 kts 158°
2026-04-24 03:12 27.43375 -83.33582 15070 ft 337 kts 142°
2026-04-24 03:12 27.41762 -83.31682 14850 ft 337 kts 126°
2026-04-24 03:12 27.40898 -83.30234 14704 ft 336 kts 124°
2026-04-24 03:12 27.39606 -83.28043 14485 ft 335 kts 124°
2026-04-24 03:13 27.38314 -83.25860 14278 ft 334 kts 124°
2026-04-24 03:13 27.37028 -83.23694 14061 ft 333 kts 124°
2026-04-24 03:13 27.35742 -83.21533 13845 ft 331 kts 124°
2026-04-24 03:13 27.34467 -83.19388 13630 ft 330 kts 124°
2026-04-24 03:14 27.33193 -83.17248 13415 ft 328 kts 124°
2026-04-24 03:14 27.31927 -83.15117 13202 ft 327 kts 124°
2026-04-24 03:14 27.30665 -83.12993 12988 ft 326 kts 124°
2026-04-24 03:14 27.29409 -83.10881 12762 ft 325 kts 124°
2026-04-24 03:15 27.28157 -83.08775 12567 ft 324 kts 124°
2026-04-24 03:15 27.26909 -83.06677 12355 ft 322 kts 124°
2026-04-24 03:15 27.25668 -83.04585 12146 ft 321 kts 124°
2026-04-24 03:15 27.24432 -83.02505 11937 ft 320 kts 124°
2026-04-24 03:16 27.23196 -83.00433 11715 ft 318 kts 124°
2026-04-24 03:16 27.21964 -82.98372 11521 ft 317 kts 124°
2026-04-24 03:16 27.20737 -82.96315 11312 ft 316 kts 124°
2026-04-24 03:16 27.19514 -82.94268 11111 ft 315 kts 124°
2026-04-24 03:17 27.18297 -82.92231 10905 ft 314 kts 124°
2026-04-24 03:17 27.17081 -82.90199 10701 ft 312 kts 124°
2026-04-24 03:17 27.15878 -82.88173 10498 ft 311 kts 122°
2026-04-24 03:17 27.15047 -82.85947 10296 ft 310 kts 102°
2026-04-24 03:18 27.14766 -82.83547 10097 ft 310 kts 97°
2026-04-24 03:18 27.14540 -82.81155 9883 ft 304 kts 96°
2026-04-24 03:18 27.14327 -82.78828 9693 ft 296 kts 96°
2026-04-24 03:18 27.14121 -82.76550 9494 ft 292 kts 96°
2026-04-24 03:19 27.13914 -82.74279 9291 ft 291 kts 96°
2026-04-24 03:19 27.13706 -82.72023 9085 ft 290 kts 96°
2026-04-24 03:19 27.13499 -82.69773 8890 ft 289 kts 96°
2026-04-24 03:19 27.13292 -82.67533 8690 ft 288 kts 96°
2026-04-24 03:20 27.13084 -82.65298 8489 ft 287 kts 96°
2026-04-24 03:20 27.12876 -82.63073 8288 ft 286 kts 96°
2026-04-24 03:20 27.12670 -82.60859 8086 ft 284 kts 96°
2026-04-24 03:20 27.12463 -82.58658 7885 ft 283 kts 96°
2026-04-24 03:21 27.12257 -82.56469 7683 ft 282 kts 96°
2026-04-24 03:21 27.12052 -82.54285 7485 ft 281 kts 96°
2026-04-24 03:21 27.11848 -82.52108 7284 ft 280 kts 96°
2026-04-24 03:21 27.11645 -82.49936 7082 ft 279 kts 96°
2026-04-24 03:22 27.11440 -82.47779 6884 ft 278 kts 96°
2026-04-24 03:22 27.11238 -82.45659 6685 ft 276 kts 96°
2026-04-24 03:22 27.11033 -82.43518 6467 ft 275 kts 96°
2026-04-24 03:22 27.10830 -82.41390 6284 ft 274 kts 96°
2026-04-24 03:23 27.10628 -82.39270 6085 ft 273 kts 96°
2026-04-24 03:23 27.10427 -82.37162 5885 ft 272 kts 96°
2026-04-24 03:23 27.10229 -82.35055 5680 ft 270 kts 96°
2026-04-24 03:23 27.10029 -82.32966 5486 ft 269 kts 97°
2026-04-24 03:24 27.09828 -82.30892 5282 ft 267 kts 97°
2026-04-24 03:24 27.09628 -82.28843 5080 ft 259 kts 97°
2026-04-24 03:24 27.09440 -82.26875 4876 ft 248 kts 97°
2026-04-24 03:24 27.09259 -82.24989 4678 ft 239 kts 97°
2026-04-24 03:25 27.09079 -82.23159 4382 ft 235 kts 97°
2026-04-24 03:25 27.08902 -82.21346 4004 ft 234 kts 97°
2026-04-24 03:25 27.08724 -82.19532 3634 ft 233 kts 97°
2026-04-24 03:25 27.08550 -82.17727 3286 ft 232 kts 97°
2026-04-24 03:26 27.08378 -82.15941 2947 ft 229 kts 97°
2026-04-24 03:26 27.08208 -82.14176 2572 ft 227 kts 97°
2026-04-24 03:26 27.08018 -82.12418 2312 ft 222 kts 103°
2026-04-24 03:26 27.07513 -82.10854 2239 ft 208 kts 120°
2026-04-24 03:27 27.06670 -82.09613 2155 ft 195 kts 136°
2026-04-24 03:27 27.05605 -82.08738 2075 ft 188 kts 149°
2026-04-24 03:27 27.04487 -82.08008 1993 ft 185 kts 148°
2026-04-24 03:27 27.03384 -82.07273 1918 ft 184 kts 148°
2026-04-24 03:28 27.02289 -82.06540 1846 ft 182 kts 148°
2026-04-24 03:28 27.01247 -82.05844 1783 ft 167 kts 148°
2026-04-24 03:28 27.00310 -82.05218 1700 ft 145 kts 148°
2026-04-24 03:28 26.99473 -82.04659 1628 ft 136 kts 148°
2026-04-24 03:29 26.98667 -82.04121 1509 ft 134 kts 148°
2026-04-24 03:29 26.97871 -82.03591 1321 ft 132 kts 149°
2026-04-24 03:29 26.97079 -82.03062 1140 ft 133 kts 149°
2026-04-24 03:29 26.96290 -82.02534 960 ft 131 kts 149°
2026-04-24 03:30 26.95506 -82.02011 786 ft 131 kts 149°
2026-04-24 03:30 26.94729 -82.01495 620 ft 132 kts 150°
2026-04-24 03:30 26.93940 -82.00971 448 ft 132 kts 149°
2026-04-24 03:30 26.93159 -82.00433 260 ft 132 kts 149°
2026-04-24 03:31 26.92370 -81.99910 94 ft 132 kts 149°
2026-04-24 03:31 26.91606 -81.99411 33 ft 113 kts 150°
2026-04-24 03:31 26.91099 -81.99077 28 ft 54 kts 149°
2026-04-24 03:31 26.90925 -81.98961 27 ft 12 kts 149°
2026-04-24 03:32 26.90861 -81.98987 28 ft 10 kts 236°
2026-04-24 03:32 26.90848 -81.99049 29 ft 7 kts 290°
2026-04-24 03:32 26.90892 -81.99083 30 ft 11 kts 329°
2026-04-24 03:32 26.90970 -81.99133 29 ft 13 kts 329°
2026-04-24 03:33 26.91026 -81.99211 28 ft 13 kts 298°
2026-04-24 03:33 26.91063 -81.99287 30 ft 10 kts 298°
2026-04-24 03:33 26.91108 -81.99299 31 ft 7 kts 23°
2026-04-24 03:33 26.91163 -81.99302 31 ft 9 kts 330°
2026-04-24 03:34 26.91238 -81.99354 31 ft 16 kts 329°
2026-04-24 03:34 26.91329 -81.99416 31 ft 15 kts 329°
2026-04-24 03:34 26.91412 -81.99471 31 ft 14 kts 329°
2026-04-24 03:34 26.91494 -81.99525 31 ft 14 kts 329°
2026-04-24 03:35 26.91577 -81.99580 29 ft 14 kts 330°
2026-04-24 03:35 26.91654 -81.99631 28 ft 9 kts 329°
2026-04-24 03:35 26.91674 -81.99672 28 ft 6 kts 238°
2026-04-24 03:35 26.91657 -81.99707 29 ft 4 kts 243°
2026-04-24 03:36 26.91651 -81.99720 30 ft 0 kts 242°
2026-04-24 03:36 26.91648 -81.99725 30 ft 0 kts 242°